• In Hungary
  • List of Countries
  • For 7 days
  • Water Temperature
  • Satellite Maps
  • Weather Map
  • News
  • Weather Widgets
  • user-avatar
    Login

    Hourly Weather Stanovets'

    Today, 17 October, Tuesday

    Time Temperature Precipitation Wind Pressure Humidity
    00:00 +12°C° 0 mm 1 mps 733 mmHg 88%
    01:00 +12°C° 0 mm 1 mps 733 mmHg 88%
    02:00 +12°C° 0 mm 1 mps 733 mmHg 87%
    03:00 +11°C° 0 mm 1 mps 733 mmHg 88%
    04:00 +11°C° 0 mm 1 mps 733 mmHg 88%
    05:00 +11°C° 0 mm 1 mps 733 mmHg 89%
    06:00 +11°C° 0 mm 1 mps 733 mmHg 87%
    07:00 +12°C° 0 mm 1 mps 733 mmHg 85%
    08:00 +12°C° 0 mm 1 mps 733 mmHg 84%
    09:00 +15°C° 0 mm 1 mps 733 mmHg 75%
    10:00 +18°C° 0 mm 1 mps 734 mmHg 66%
    11:00 +21°C° 0 mm 1 mps 734 mmHg 57%
    12:00 +21°C° 0 mm 1 mps 733 mmHg 55%
    13:00 +22°C° 0 mm 1 mps 733 mmHg 52%
    14:00 +23°C° 0 mm 1 mps 733 mmHg 50%
    15:00 +21°C° 0 mm 1 mps 733 mmHg 56%
    16:00 +18°C° 0 mm 0 mps 732 mmHg 62%
    17:00 +16°C° 0 mm 0 mps 732 mmHg 69%
    18:00 +16°C° 0 mm 1 mps 732 mmHg 73%
    19:00 +15°C° 0 mm 1 mps 732 mmHg 77%
    20:00 +14°C° 0 mm 1 mps 732 mmHg 81%
    21:00 +13°C° 0 mm 1 mps 731 mmHg 79%
    22:00 +13°C° 0 mm 1 mps 731 mmHg 78%
    23:00 +13°C° 0 mm 1 mps 731 mmHg 77%

    Tomorrow, 18 October, Wednesday

    Time Temperature Precipitation Wind Pressure Humidity
    00:00 +13°C° 0 mm 1 mps 731 mmHg 75%
    01:00 +13°C° 0 mm 1 mps 731 mmHg 74%
    02:00 +12°C° 0 mm 1 mps 731 mmHg 73%
    03:00 +12°C° 0 mm 1 mps 730 mmHg 73%
    04:00 +12°C° 0 mm 1 mps 730 mmHg 73%
    05:00 +12°C° 0 mm 2 mps 729 mmHg 73%
    06:00 +12°C° 0 mm 1 mps 729 mmHg 73%
    07:00 +13°C° 0 mm 1 mps 729 mmHg 72%
    08:00 +13°C° 0 mm 1 mps 729 mmHg 71%
    09:00 +16°C° 0 mm 2 mps 729 mmHg 63%
    10:00 +18°C° 0 mm 2 mps 729 mmHg 55%
    11:00 +21°C° 0 mm 2 mps 729 mmHg 47%
    12:00 +23°C° 0 mm 2 mps 729 mmHg 45%
    13:00 +23°C° 0 mm 2 mps 729 mmHg 43%
    14:00 +24°C° 0 mm 2 mps 728 mmHg 41%
    15:00 +22°C° 0 mm 1 mps 728 mmHg 46%
    16:00 +21°C° 0 mm 1 mps 727 mmHg 52%
    17:00 +19°C° 0 mm 1 mps 727 mmHg 58%
    18:00 +18°C° 0 mm 1 mps 727 mmHg 61%
    19:00 +16°C° 0 mm 1 mps 727 mmHg 63%
    20:00 +15°C° 0 mm 1 mps 727 mmHg 65%
    21:00 +15°C° 0 mm 1 mps 727 mmHg 64%
    22:00 +14°C° 0 mm 1 mps 727 mmHg 64%
    23:00 +14°C° 0 mm 1 mps 727 mmHg 63%

    Day after tomorrow, 19 October, Thursday

    Time Temperature Precipitation Wind Pressure Humidity
    00:00 +14°C° 0 mm 1 mps 727 mmHg 62%
    01:00 +14°C° 0 mm 1 mps 726 mmHg 62%
    02:00 +13°C° 0 mm 2 mps 726 mmHg 61%
    03:00 +13°C° 0 mm 1 mps 726 mmHg 61%
    04:00 +13°C° 0 mm 1 mps 726 mmHg 61%
    05:00 +13°C° 0 mm 1 mps 726 mmHg 61%
    06:00 +13°C° 0 mm 1 mps 726 mmHg 61%
    07:00 +14°C° 0 mm 1 mps 726 mmHg 62%
    08:00 +14°C° 0 mm 1 mps 726 mmHg 62%
    09:00 +16°C° 0 mm 2 mps 726 mmHg 57%
    10:00 +18°C° 0 mm 2 mps 726 mmHg 52%
    11:00 +20°C° 0 mm 2 mps 726 mmHg 47%
    12:00 +21°C° 0 mm 2 mps 726 mmHg 47%
    13:00 +21°C° 0 mm 2 mps 726 mmHg 46%
    14:00 +23°C° 0 mm 2 mps 726 mmHg 45%
    15:00 +20°C° 0 mm 2 mps 726 mmHg 50%
    16:00 +20°C° 0 mm 1 mps 725 mmHg 56%
    17:00 +18°C° 0 mm 1 mps 725 mmHg 61%
    18:00 +16°C° 0 mm 1 mps 725 mmHg 65%
    19:00 +15°C° 0 mm 1 mps 726 mmHg 68%
    20:00 +14°C° 0 mm 1 mps 726 mmHg 71%
    21:00 +13°C° 0 mm 1 mps 726 mmHg 72%
    22:00 +13°C° 0 mm 1 mps 726 mmHg 73%
    23:00 +13°C° 0 mm 1 mps 726 mmHg 74%

    20 October, Friday

    Time Temperature Precipitation Wind Pressure Humidity
    00:00 +12°C° 0 mm 1 mps 726 mmHg 76%
    01:00 +12°C° 0 mm 1 mps 727 mmHg 77%
    02:00 +12°C° 0 mm 1 mps 727 mmHg 78%
    03:00 +11°C° 0 mm 1 mps 727 mmHg 79%
    04:00 +11°C° 0 mm 1 mps 727 mmHg 80%
    05:00 +11°C° 0 mm 1 mps 727 mmHg 81%
    06:00 +11°C° 0 mm 1 mps 727 mmHg 80%
    07:00 +11°C° 0 mm 1 mps 727 mmHg 78%
    08:00 +12°C° 0 mm 1 mps 727 mmHg 77%
    09:00 +14°C° 0 mm 1 mps 728 mmHg 68%
    10:00 +16°C° 0 mm 1 mps 728 mmHg 59%
    11:00 +19°C° 0 mm 1 mps 728 mmHg 50%
    12:00 +20°C° 0 mm 1 mps 728 mmHg 49%
    13:00 +20°C° 0 mm 1 mps 728 mmHg 47%
    14:00 +21°C° 0 mm 1 mps 728 mmHg 46%
    15:00 +19°C° 0 mm 1 mps 728 mmHg 52%
    16:00 +18°C° 0 mm 1 mps 727 mmHg 58%
    17:00 +15°C° 0 mm 0 mps 727 mmHg 64%
    18:00 +14°C° 0 mm 1 mps 727 mmHg 68%
    19:00 +13°C° 0 mm 1 mps 728 mmHg 71%
    20:00 +12°C° 0 mm 1 mps 728 mmHg 75%
    21:00 +12°C° 0 mm 1 mps 728 mmHg 76%
    22:00 +11°C° 0 mm 1 mps 728 mmHg 76%
    23:00 +11°C° 0 mm 1 mps 728 mmHg 77%

    21 October, Saturday

    Time Temperature Precipitation Wind Pressure Humidity
    00:00 +11°C° 0 mm 1 mps 728 mmHg 78%
    01:00 +11°C° 0 mm 1 mps 728 mmHg 78%
    02:00 +10°C° 0 mm 1 mps 728 mmHg 79%
    03:00 +10°C° 0 mm 1 mps 728 mmHg 80%
    04:00 +10°C° 0 mm 1 mps 728 mmHg 81%
    05:00 +9°C° 0 mm 2 mps 728 mmHg 81%
    06:00 +10°C° 0 mm 1 mps 728 mmHg 80%
    07:00 +11°C° 0 mm 1 mps 728 mmHg 79%
    08:00 +11°C° 0 mm 1 mps 728 mmHg 77%
    09:00 +13°C° 0 mm 2 mps 728 mmHg 69%
    10:00 +15°C° 0 mm 2 mps 728 mmHg 61%
    11:00 +17°C° 0 mm 2 mps 728 mmHg 54%
    12:00 +18°C° 0 mm 2 mps 727 mmHg 54%
    13:00 +18°C° 0 mm 2 mps 727 mmHg 54%
    14:00 +18°C° 0 mm 2 mps 727 mmHg 55%
    15:00 +17°C° 0 mm 2 mps 726 mmHg 60%
    16:00 +16°C° 0 mm 1 mps 726 mmHg 66%
    17:00 +15°C° 0 mm 1 mps 726 mmHg 72%
    18:00 +14°C° 0 mm 1 mps 726 mmHg 76%
    19:00 +13°C° 0 mm 1 mps 726 mmHg 79%
    20:00 +12°C° 0 mm 1 mps 726 mmHg 83%
    21:00 +12°C° 0 mm 1 mps 726 mmHg 84%
    22:00 +11°C° 0 mm 1 mps 726 mmHg 85%
    23:00 +11°C° 0 mm 1 mps 726 mmHg 86%

    22 October, Sunday

    Time Temperature Precipitation Wind Pressure Humidity
    00:00 +11°C° 0 mm 1 mps 726 mmHg 86%
    01:00 +11°C° 0 mm 1 mps 726 mmHg 87%
    02:00 +10°C° 0 mm 1 mps 726 mmHg 87%
    03:00 +10°C° 0 mm 1 mps 726 mmHg 87%
    04:00 +10°C° 0 mm 1 mps 726 mmHg 88%
    05:00 +10°C° 0 mm 1 mps 725 mmHg 88%
    06:00 +10°C° 0 mm 1 mps 725 mmHg 87%
    07:00 +11°C° 0 mm 1 mps 725 mmHg 85%
    08:00 +11°C° 0 mm 1 mps 725 mmHg 84%
    09:00 +13°C° 0 mm 2 mps 725 mmHg 76%
    10:00 +15°C° 0 mm 2 mps 725 mmHg 69%
    11:00 +17°C° 0 mm 2 mps 725 mmHg 61%
    12:00 +18°C° 0 mm 2 mps 725 mmHg 59%
    13:00 +18°C° 0 mm 2 mps 724 mmHg 57%
    14:00 +19°C° 0 mm 2 mps 724 mmHg 55%
    15:00 +18°C° 0 mm 2 mps 723 mmHg 60%
    16:00 +18°C° 0 mm 1 mps 723 mmHg 65%
    17:00 +15°C° 0 mm 1 mps 722 mmHg 70%
    18:00 +14°C° 0 mm 1 mps 722 mmHg 73%
    19:00 +14°C° 0 mm 2 mps 722 mmHg 75%
    20:00 +13°C° 0 mm 2 mps 722 mmHg 78%
    21:00 +13°C° 0 mm 2 mps 722 mmHg 77%
    22:00 +13°C° 0 mm 2 mps 722 mmHg 77%
    23:00 +13°C° 0 mm 2 mps 721 mmHg 76%
    Show more